Regional Weather Roundup
Issued by NWS Wakefield, VA

Home | Current Version | Previous Version | Text Only | Print | Product List | Glossary Off
Versions: 1 2 3 4 5 6 7 8 9 10 11 12 13 14 15 16 17 18 19 20 21 22 23 24 25 26 27 28 29 30 31 32 33 34 35 36 37 38 39 40 41 42 43 44 45 46 47 48 49 50

000
ASUS41 KAKQ 170115
RWRAKQ

REGIONAL WEATHER ROUNDUP
NATIONAL WEATHER SERVICE WAKEFIELD VA
800 PM EST MON JAN 16 2017

Note: "fair" indicates few or no clouds below 12,000 feet with no
significant weather and/or obstructions to visibility. * = Denotes
station may not report precipitation (e.g., rain,snow,etc.),
thunder or fog.

VAZ042-051-052>054-056-170200-
NORTHERN VIRGINIA

CITY           SKY/WX    TMP DP  RH WIND       PRES   REMARKS
WASH NATIONAL  CLOUDY    43  34  70 S5        30.36S
DULLES         CLOUDY    42  31  64 SE3       30.34S
FORT BELVOIR   CLOUDY    41  31  68 CALM      30.35S
QUANTICO       CLOUDY    42  36  79 SW3       30.36F
FREDERICKSBRG* CLOUDY    42  37  81 S5        30.35S
STAFFORD*      CLOUDY    41  35  79 CALM      30.39S
WARRENTON      CLOUDY    44  37  77 S5        30.33S
CULPEPER*      CLOUDY    44  41  90 S5        30.35S
MANASSAS*      CLOUDY   N/A N/A N/A CALM      30.35S
LEESBURG*      CLOUDY    45  43  93 MISG      30.34S
WINCHESTER     CLOUDY    39  36  87 CALM      30.30S
FRONT ROYAL*   CLOUDY    39  37  93 CALM      30.29S
LURAY*         FAIR      45  43  93 SW7       30.29S
$$

VAZ048-049-060>072-079>083-170200-
CENTRAL AND SOUTH CENTRAL VIRGINIA

CITY           SKY/WX    TMP DP  RH WIND       PRES   REMARKS
RICHMOND       CLOUDY    42  39  89 CALM      30.36S
CHESTERFIELD*  CLOUDY    43  25  49 S3        30.38S
PETERSBURG*    CLOUDY    43  37  81 CALM      30.38R
HANOVER        CLOUDY    43  36  76 S5        30.38S
TAPPAHANNOCK*  CLOUDY    44  29  57 SE3       30.36F
QUINTON*       CLOUDY    42  39  88 SE3       30.36F
CHARLOTTSVILLE CLOUDY    44  41  89 S5        30.33R FOG
GORDONSVILLE*  CLOUDY    42  41  98 CALM      30.34R
ORANGE*          N/A     43  43 100 CALM      30.36R
LOUISA*        MOCLDY    45  43  93 CALM      30.33S
BUMPASS*       CLOUDY    41  40  94 CALM      30.35S
FARMVILLE*     CLOUDY    43  42  97 CALM      30.35R
CREWE*         CLOUDY    43  43 100 CALM      30.36R
FORT PICKETT*  CLOUDY    43  39  87 CALM      30.37R
CHASE CITY*    CLOUDY    45  39  81 CALM      30.36S
CLARKSVILLE*   CLOUDY    45  39  81 CALM      30.36S
SOUTH HILL*    CLOUDY    44  40  86 S5        30.43R
LAWRENCEVILLE* CLOUDY    43  40  89 CALM      30.37R
EMPORIA*       CLOUDY    43  39  87 CALM      30.39S
$$

VAZ088>098-170200-
SOUTHEAST VIRGINIA

CITY           SKY/WX    TMP DP  RH WIND       PRES   REMARKS
NORFOLK        CLOUDY    44  39  82 CALM      30.37F
VIRGINIA BEACH CLOUDY    43  38  82 CALM      30.36F
NORFOLK NAVAL  CLOUDY    44  38  79 E3        30.38F
WEST POINT*    CLOUDY    42  35  74 SE6       30.38F
SALUDA*        CLOUDY    42  34  73 S5        30.37F
NEWPORT NEWS   CLOUDY    43  34  70 E5        30.37F
LANGLEY AFB    CLOUDY    43  33  67 SE5       30.37F
FORT EUSTIS    CLOUDY    43  36  74 CALM      30.34F
WILLIAMSBURG*  CLOUDY    45  39  81 CALM      30.38F
HR EXEC AP*    CLOUDY    43  37  81 E3        30.36S
FRANKLIN*      CLOUDY    42  39  87 CALM      30.38S
US460-WAKEFLD  CLOUDY    43  37  79 E3        30.37F
$$

VAZ020-022-025-037-045-170200-
WEST CENTRAL AND SOUTHWEST VIRGINIA

CITY           SKY/WX    TMP DP  RH WIND       PRES   REMARKS
STAUNTON*      CLOUDY    42  39  89 S7        30.31S
WAYNESBORO*    CLOUDY    41  39  95 CALM      30.30S
HOT SPRINGS VA CLOUDY    48  48 100 SW8       30.25S
LYNCHBURG      CLOUDY    38  36  92 CALM      30.35S
DANVILLE       CLOUDY    45  34  65 VRB3      30.35S
SOUTH BOSTON*  FAIR      43  37  80 CALM      30.36S
MARTINSVILLE   CLOUDY    46  41  84 CALM      30.36S
ROANOKE        CLOUDY    44  42  93 CALM      30.34F
BLACKSBURG     FOG       42  42 100 CALM      30.33S VSB 1/4
DUBLIN*        CLOUDY    46  46 100 CALM      30.31S FOG
MARION*        FOG       50  49  97 NE6       30.31S VSB 1/4
HILLSVILLE*    FOG       42  42 100 CALM      30.29R VSB 1/4
RICHLANDS*     CLOUDY   N/A N/A N/A CALM      30.25S
WISE*          CLOUDY    55  46  71 CALM      30.25S
ABINGDON*      CLOUDY    57  48  70 CALM      30.25S
$$

MDZ021>025-VAZ099-100-170200-
SOUTHERN MARYLAND AND THE DELMARVA PENINSULA

CITY           SKY/WX    TMP DP  RH WIND       PRES   REMARKS
PATUXENT RIVER CLOUDY    41  25  53 S3        30.36F
BAY BRIDGE APT CLOUDY    41  30  65 S5        30.36S
LEONARDTOWN    CLOUDY    41  28  60 SE3       30.37F
DOVER          CLOUDY    38  33  81 SE5       30.35F
GEORGETOWN     CLOUDY    41  31  67 SE5       30.37F
EASTON         CLOUDY    43  27  52 S3        30.39F
CAMBRIDGE      CLOUDY    41  32  70 CALM      30.36S
SALISBURY      CLOUDY    42  32  67 SE3       30.37F
OCEAN CITY     CLOUDY    42  33  70 CALM      30.38F
WALLOPS ISLAND CLOUDY    41  34  76 CALM      30.38F
ACCOMACK*      CLOUDY    42  36  80 CALM      30.38S
$$

NCZ012>017-030>032-170200-
NORTH CENTRAL AND EASTERN NORTH CAROLINA

CITY           SKY/WX    TMP DP  RH WIND       PRES   REMARKS
ROANOKE RAPIDS CLOUDY    45  41  87 CALM      30.37F
RALEIGH        CLOUDY    49  36  61 SE3       30.36F
ELIZABETH CITY MOCLDY    43  39  86 CALM      30.38S
AHOSKIE*         N/A     44  38  81 CALM      30.38F
EDENTON*       CLOUDY    46  40  80 CALM      30.38F
CURRITUCK*     MOCLDY    43  39  85 CALM      30.37F
KILL DEVIL HLS NOT AVBL
MANTEO         PTCLDY    44  40  88 NE6       30.36F
CAPE HATTERAS  PTCLDY    47  43  86 N8        30.35F
TARBORO*       NOT AVBL
GOLDSBORO      CLOUDY    51  45  80 CALM      30.35F
WASHINGTON     CLOUDY    47  40  76 E3        30.38F HAZE
GREENVILLE     CLOUDY    50  45  81 CALM      30.37F
NEW BERN       CLOUDY    50  44  80 CALM      30.38F
WILMINGTON     CLOUDY    54  47  77 E6        30.35S
$$

VAZ048-170200-
ELSEWHERE

CITY           SKY/WX    TMP DP  RH WIND       PRES   REMARKS
HARRISBURG PA  MOCLDY    36  28  73 SE3       30.33F
BALTIMORE      CLOUDY    39  29  67 SE3       30.34F
ANNAPOLIS      CLOUDY    42  30  62 S7        30.36S
ANDREWS AFB    CLOUDY    41  30  66 S5        30.34R
PHILADELPHIA   CLOUDY    38  26  62 SW6       30.37S
HENDERSON NC   CLOUDY    45  36  70 S3        30.36F
GREENSBORO     CLOUDY    48  44  86 S7        30.33R
ROCKY MOUNT    CLOUDY    48  43  82 CALM      30.37F
$$

VAZ100-170200-
MARINE

STATION/POSITION TIME  TEMP    WIND        PRES    WAVE   SWELL
                       AIR SEA DIR/SP/G            HT/PER HT/PER
                 (UTC) (F)     (DEG/KT/KT) (MB)    (FT/S) (FT/S)
CAPE MAY NJ      0042   38 40  120/  2/  2 1028.5S
LEWES DE         0042   39 41  160/  5/  5 1028.5F
OCEAN-CITY-INLET 0042   42 42  200/  4/  5 1029.0F
WACHAPREAGUE VA  0042   42 45   80/  2/  3 1028.7F
THOMAS POINT MD  0100   40 38  180/  8/  8   N/A
GOOSES REEF MD   0100   40     190/  6/  8 1028.7
COVE POINT MD    0042   39     190/  9/  9 1028.8F
SOLOMONS ISLAND  0042   41 41  150/  3/  4   N/A
BISHOPS HEAD MD  0042   39 41  140/  4/  5 1028.6F
PINEY POINT MD   0036          150/  7/  8   N/A
POTOMAC MD       0100   40 40  170/  6/  6 1027.5
CAMBRIDGE MD     0042   42 39  170/  3/  6 1027.4F
LEWISETTA VA     0042   42 42  190/  5/  6 1028.0F
RAPPAHANNOCK LGT 0036          100/  2/  2 1029.2F
STINGRAY PT      0050   40     160/  4/  6 1028.9F
YORK RVR RNG VA  0042   42     170/  4/  4 1028.1F
YORKTOWN VA      0042   43 42  160/  4/  5 1028.4F
JAMESTOWN VA     0100   43 43  120/  6/  8   N/A     0
DOMINION TERM VA 0042   42      90/  5/  6 1028.8S
KIPTOPEKE VA     0036      43  130/  2/  3   N/A
CHES BAY BRIDGE  0042   42 42   CALM  /  2 1028.6F
CAPE HENRY VA    0042   42      CALM  /  1   N/A
WILLOUBY STN VA  0042   42     100/  4/  5 1029.5F
S CRANEY ISL VA  0042   43     110/  3/  5 1028.4F
CAPE HENRY BUOY  0042      47                N/A     2/ 8
OFFSHORE WE BUOY 0051      49                N/A     3/10
64NM E OF VA BCH 0050   53 59   40/  6/  8 1027.8F   3/ 8   3/ 8
DUCK PIER NC     0042   44 44  350/  7/  8 1027.7F
44100 DUCK FRF   0035      47                N/A     3/10   2/11
44056 DUCK FRF   0030      44                N/A     3/10
OREGON INLET NC  0042   45 48  350/  6/  9 1027.8F
HATTERAS NC      0042   47 54   10/ 11/ 13 1027.3F
DIAMOND SHLS NC  0050   55 73   20/ 12/ 14 1027.2F   3/ 7   3/ 7
CAPE LOOKOUT NC  0000   49     360/  7/  9 1028.0F
$$



USA.gov is the U.S. government's official web portal to all federal, state and local government web resources and services.